[[{"header":{"parameterUnit":"m.s-1","parameterCategory":1,"la1":30.2991,"la2":30.254,"lo1":-89.0895,"lo2":-89.0444,"dy":0.0017,"dx":0.0017,"nx":28,"ny":28,"refTime":"2025-03-16T09:00:00:Z","depth":0,"parameterNumber":2,"parameterNumberName":"U-component_of_WINDS"},"data":[0,0,0,0,0,0,0,0,0,0,0,0,0,0,0,0,0,0,0,0,0,0,0,0,0,0,0,0,0,0,0,0,0,0,0,0,0,0,0,0,0,0,0,0,0,0,0,0,0,0,0,0,0,0,0,0,0,0,-1.7797,-1.7797,0,-1.7793,-1.7793,-1.7793,-1.7739,-1.7738,-1.7737,-1.7735,-1.7734,-1.7735,-1.7736,0,0,0,0,0,0,0,0,0,0,0,0,0,-1.7757,-1.7758,-1.7797,-1.7797,-1.7797,-1.7793,-1.7793,-1.7793,-1.774,-1.7738,-1.7736,-1.7735,-1.7733,-1.7735,-1.7736,0,0,0,0,0,0,0,0,0,0,0,0,0,-1.7766,-1.7759,-1.7797,-1.7769,-1.7767,-1.7793,-1.7793,-1.7793,-1.774,-1.7738,-1.7736,-1.7734,-1.7733,-1.7734,-1.7736,-1.7789,0,0,-1.7742,-1.7743,0,0,0,0,0,0,0,0,-1.7766,-1.7768,-1.7773,-1.7771,-1.7769,-1.7765,-1.7779,-1.7792,-1.7741,-1.775,-1.7735,-1.7733,-1.7746,-1.7746,-1.775,-1.7789,-1.7789,-1.7742,-1.7743,-1.7744,-1.7745,0,0,0,0,0,0,0,-1.7765,-1.7768,-1.7795,-1.7774,-1.7771,-1.7758,-1.7757,-1.7781,-1.776,-1.7749,-1.7745,-1.7746,-1.7744,-1.7749,-1.775,-1.7789,-1.7742,-1.7744,-1.7745,-1.7746,-1.7869,-1.7871,0,0,0,0,0,0,-1.7768,-1.7768,-1.7795,-1.7795,-1.7762,-1.776,-1.7759,-1.7768,-1.7759,-1.7756,-1.7747,-1.7743,-1.7746,-1.7748,-1.775,-1.7809,-1.7744,-1.7746,-1.7747,-1.7867,-1.787,-1.7872,0,0,0,0,0,0,-1.7768,-1.7771,-1.7796,-1.778,-1.7782,-1.7763,-1.7774,-1.7769,-1.7774,-1.7758,-1.7754,-1.7756,-1.7745,-1.7747,-1.7779,-1.7809,-1.7747,-1.7748,-1.7864,-1.7868,-1.7871,-1.7931,0,0,0,0,0,0,-1.7767,-1.7772,-1.7791,-1.7781,-1.7783,-1.7825,-1.7775,-1.777,-1.7777,-1.7771,-1.7765,-1.7762,-1.7743,-1.7777,-1.7781,-1.781,-1.775,-1.7862,-1.7866,-1.787,-1.7926,-1.7936,-1.7944,0,0,0,0,0,-1.7766,-1.7809,-1.7793,-1.7796,-1.7808,-1.7827,-1.7828,-1.7806,-1.7779,-1.7799,-1.7789,-1.7762,-1.7805,-1.778,-1.7785,-1.7815,-1.786,-1.7865,-1.7869,-1.7922,-1.7934,-1.7944,0,0,0,0,0,0,-1.7824,-1.7807,-1.7789,-1.783,-1.783,-1.7818,-1.7842,-1.7819,-1.7828,-1.7822,-1.7794,-1.7793,-1.783,-1.7826,-1.7799,-1.7865,-1.7828,-1.7834,-1.7866,-1.7877,-1.7886,-1.7886,-1.7751,0,0,0,0,0,-1.7842,-1.7858,-1.7843,-1.7881,-1.7882,-1.7862,-1.787,-1.7852,-1.7852,-1.7852,-1.7844,-1.7844,-1.7858,-1.7867,-1.7879,-1.7925,-1.7923,-1.7948,-1.7957,-1.7965,-1.797,-1.7993,-1.8003,-1.7888,-1.7888,-1.7888,0,0,-1.7878,-1.7871,-1.7884,-1.7892,-1.789,-1.7908,-1.7863,-1.7884,-1.7897,-1.7855,-1.7884,-1.7879,-1.7878,-1.7917,-1.7934,-1.7915,-1.8001,-1.7971,-1.7977,-1.7978,-1.7999,-1.801,-1.8019,-1.7891,-1.7891,-1.789,0,0,-1.7954,-1.7951,-1.7981,-1.798,-1.7977,-1.7963,-1.7971,-1.7962,-1.7956,-1.7985,-1.7953,-1.7969,-1.7993,-1.7993,-1.7996,-1.8071,-1.8046,-1.8076,-1.8122,-1.8144,-1.8154,-1.8161,-1.8187,-1.8196,-1.8081,-1.8081,-1.8081,0,-1.8,-1.8025,-1.8,-1.8022,-1.8027,-1.7989,-1.8019,-1.802,-1.8022,-1.8025,-1.8004,-1.8032,-1.8029,-1.8067,-1.8085,-1.809,-1.8097,-1.8076,-1.8154,-1.8162,-1.8169,-1.8193,-1.8203,-1.8085,-1.8084,-1.8084,-1.8084,0,-1.8081,-1.8099,-1.8124,-1.8125,-1.8133,-1.816,-1.8138,-1.8149,-1.8131,-1.8119,-1.8149,-1.8143,-1.8153,-1.8161,-1.8144,-1.8196,-1.8184,-1.8159,-1.8121,-1.8184,-1.8206,-1.8215,-1.809,-1.8088,-1.8087,-1.8086,0,0,-1.8194,-1.8179,-1.8189,-1.8188,-1.8182,-1.8196,-1.8221,-1.8229,-1.8238,-1.824,-1.826,-1.8281,-1.8257,-1.8261,-1.8243,-1.8264,-1.8321,-1.8236,-1.8235,-1.8251,-1.8377,-1.8395,-1.8406,-1.8305,-1.8307,-1.8308,-1.8377,0,-1.8265,-1.8306,-1.8283,-1.8327,-1.8343,-1.8307,-1.8328,-1.8327,-1.8317,-1.8329,-1.8318,-1.8333,-1.8301,-1.8303,-1.8321,-1.831,-1.8346,-1.8305,-1.8323,-1.8324,-1.8323,-1.8418,-1.8437,-1.8502,-1.8385,-1.8387,-1.8388,0,-1.8355,-1.8359,-1.8404,-1.8394,-1.8399,-1.8419,-1.8424,-1.8436,-1.8434,-1.8425,-1.8429,-1.8406,-1.8429,-1.8392,-1.8424,-1.8396,-1.8402,-1.8398,-1.84,-1.84,-1.8359,-1.8419,-1.8522,-1.8531,-1.8401,-1.84,-1.8399,0,-1.843,-1.8448,-1.8477,-1.8478,-1.8466,-1.8481,-1.8477,-1.8472,-1.8478,-1.8483,-1.8486,-1.8494,-1.8498,-1.8505,-1.8485,-1.846,-1.8519,-1.848,-1.8512,-1.8512,-1.8525,-1.8524,-1.8629,-1.8531,-1.8531,-1.8531,-1.8531,0,-1.8512,-1.8541,-1.851,-1.8528,-1.8559,-1.8533,-1.8564,-1.8556,-1.8552,-1.8568,-1.8538,-1.8553,-1.8526,-1.8539,-1.8524,-1.8552,-1.8554,-1.8547,-1.8543,-1.8549,-1.855,-1.8552,-1.8546,-1.8533,-1.8533,-1.8532,-1.8532,0,-1.8602,-1.8582,-1.8611,-1.8598,-1.8595,-1.8618,-1.8607,-1.8622,-1.861,-1.863,-1.8633,-1.8614,-1.8627,-1.8608,-1.862,-1.861,-1.8647,-1.8636,-1.8648,-1.8644,-1.8676,-1.8673,-1.8785,-1.8798,-1.8693,-1.8694,-1.8695,0,-1.8654,-1.8675,-1.8664,-1.8671,-1.8669,-1.8682,-1.8687,-1.8662,-1.8669,-1.8667,-1.8683,-1.8694,-1.87,-1.8723,-1.8711,-1.8719,-1.8708,-1.8746,-1.8709,-1.8714,-1.8706,-1.8705,-1.8706,-1.8754,-1.8755,-1.8756,-1.8757,0,-1.875,-1.8739,-1.8747,-1.8752,-1.8759,-1.8763,-1.8764,-1.8772,-1.8746,-1.8755,-1.8767,-1.8773,-1.8784,-1.8794,-1.8799,-1.8795,-1.8772,-1.8769,-1.8776,-1.8783,-1.8788,-1.8784,-1.8667,-1.8766,-1.8765,-1.8765,-1.8764,-1.8764,-1.8821,-1.8838,-1.8831,-1.8842,-1.8839,-1.8841,-1.8854,-1.8843,-1.8853,-1.8859,-1.8844,-1.886,-1.8856,-1.886,-1.8859,-1.8871,-1.8854,-1.8865,-1.8868,-1.8871,-1.8875,-1.8787,-1.8872,-1.8872,-1.8872,-1.8871,-1.8871,0,-1.8914,-1.8908,-1.8917,-1.8919,-1.8927,-1.8903,-1.8903,-1.8911,-1.8925,-1.8923,-1.893,-1.8944,-1.8954,-1.8942,-1.8949,-1.8961,-1.8951,-1.8964,-1.8962,-1.8961,-1.889,-1.8883,-1.8972,-1.8972,-1.8972,-1.8972,-1.8972,-1.8972,-1.8963,-1.8988,-1.8977,-1.9001,-1.8995,-1.9009,-1.9011,-1.9011,-1.9009,-1.9026,-1.9033,-1.9025,-1.9019,-1.9026,-1.9034,-1.903,-1.9034,-1.9051,-1.9043,-1.8977,-1.8967,-1.8957,-1.8949,-1.9052,-1.9052,-1.9113,-1.9113,-1.9114]},{"header":{"parameterUnit":"m.s-1","parameterCategory":1,"la1":30.2991,"la2":30.254,"lo1":-89.0895,"lo2":-89.0444,"dy":0.0017,"dx":0.0017,"nx":28,"ny":28,"refTime":"2025-03-16T09:00:00:Z","depth":0,"parameterNumber":3,"parameterNumberName":"V-component_of_WINDS"},"data":[0,0,0,0,0,0,0,0,0,0,0,0,0,0,0,0,0,0,0,0,0,0,0,0,0,0,0,0,0,0,0,0,0,0,0,0,0,0,0,0,0,0,0,0,0,0,0,0,0,0,0,0,0,0,0,0,0,0,-1.4413,-1.4415,0,-1.4518,-1.452,-1.4521,-1.4545,-1.4544,-1.4543,-1.4543,-1.465,-1.4654,-1.4657,0,0,0,0,0,0,0,0,0,0,0,0,0,-1.4234,-1.4237,-1.4413,-1.4415,-1.4416,-1.4518,-1.452,-1.4521,-1.4545,-1.4544,-1.4543,-1.4542,-1.4649,-1.4653,-1.4657,0,0,0,0,0,0,0,0,0,0,0,0,0,-1.4322,-1.4238,-1.4413,-1.444,-1.4444,-1.4518,-1.452,-1.4521,-1.4545,-1.4544,-1.4543,-1.4542,-1.4648,-1.4653,-1.4658,-1.4713,0,0,-1.4674,-1.4677,0,0,0,0,0,0,0,0,-1.4317,-1.4329,-1.4435,-1.4438,-1.4442,-1.4517,-1.4496,-1.4586,-1.4545,-1.4507,-1.4543,-1.4541,-1.4607,-1.4615,-1.4638,-1.4718,-1.4722,-1.4675,-1.4678,-1.468,-1.4682,0,0,0,0,0,0,0,-1.4311,-1.4325,-1.4455,-1.4436,-1.4441,-1.4447,-1.4458,-1.4513,-1.4562,-1.451,-1.4512,-1.4524,-1.4609,-1.4632,-1.464,-1.4724,-1.4675,-1.4679,-1.4683,-1.4685,-1.4854,-1.4855,0,0,0,0,0,0,-1.43,-1.4319,-1.4452,-1.4458,-1.4376,-1.4451,-1.4464,-1.4494,-1.4561,-1.457,-1.4525,-1.4525,-1.4624,-1.4634,-1.4644,-1.4713,-1.468,-1.4685,-1.4688,-1.4853,-1.4854,-1.4856,0,0,0,0,0,0,-1.4296,-1.4312,-1.4447,-1.4389,-1.4407,-1.4455,-1.4489,-1.4497,-1.4521,-1.4572,-1.4581,-1.454,-1.4623,-1.4637,-1.4695,-1.4717,-1.4688,-1.4692,-1.4851,-1.4853,-1.4855,-1.485,0,0,0,0,0,0,-1.4291,-1.431,-1.4332,-1.439,-1.441,-1.4497,-1.4491,-1.45,-1.453,-1.4531,-1.4589,-1.4598,-1.4624,-1.4687,-1.4701,-1.4723,-1.4697,-1.485,-1.4852,-1.4854,-1.4848,-1.4851,-1.4854,0,0,0,0,0,-1.4284,-1.4326,-1.4333,-1.4348,-1.4438,-1.4498,-1.451,-1.4539,-1.4531,-1.4553,-1.4586,-1.4596,-1.4712,-1.4693,-1.4708,-1.4733,-1.4848,-1.4851,-1.4854,-1.4847,-1.4851,-1.4854,0,0,0,0,0,0,-1.4269,-1.4334,-1.4342,-1.4404,-1.4445,-1.4502,-1.4531,-1.4542,-1.4586,-1.4585,-1.462,-1.4633,-1.4689,-1.4717,-1.4695,-1.4789,-1.478,-1.4786,-1.4769,-1.4773,-1.4776,-1.4768,-1.4701,0,0,0,0,0,-1.4273,-1.4317,-1.4371,-1.442,-1.444,-1.4482,-1.4509,-1.4528,-1.4572,-1.459,-1.4628,-1.467,-1.4717,-1.4746,-1.4792,-1.4852,-1.4865,-1.4877,-1.4879,-1.4881,-1.4886,-1.492,-1.4926,-1.4866,-1.4865,-1.4865,0,0,-1.4282,-1.4322,-1.4348,-1.4418,-1.4452,-1.4497,-1.4496,-1.4544,-1.4577,-1.4597,-1.4655,-1.4684,-1.4734,-1.4794,-1.4822,-1.4819,-1.4906,-1.4885,-1.4886,-1.489,-1.4924,-1.4929,-1.4934,-1.4868,-1.4867,-1.4867,0,0,-1.432,-1.4355,-1.4399,-1.4434,-1.4486,-1.4513,-1.4523,-1.4579,-1.4599,-1.4657,-1.4673,-1.4713,-1.4792,-1.4827,-1.4855,-1.4906,-1.4916,-1.492,-1.4934,-1.4967,-1.4972,-1.4976,-1.4994,-1.5,-1.4924,-1.4924,-1.4924,0,-1.4323,-1.4391,-1.4421,-1.4467,-1.4497,-1.4518,-1.4563,-1.4595,-1.4659,-1.468,-1.4675,-1.4774,-1.4809,-1.4877,-1.489,-1.4912,-1.4925,-1.4913,-1.4968,-1.4973,-1.4978,-1.4995,-1.5002,-1.4924,-1.4924,-1.4924,-1.4924,0,-1.4393,-1.444,-1.4469,-1.4531,-1.4564,-1.461,-1.4646,-1.4677,-1.4692,-1.472,-1.4779,-1.4822,-1.4876,-1.4894,-1.4909,-1.4964,-1.496,-1.4962,-1.4953,-1.4983,-1.5,-1.5007,-1.4925,-1.4924,-1.4924,-1.4924,0,0,-1.4425,-1.4502,-1.4512,-1.454,-1.4599,-1.4635,-1.4681,-1.4734,-1.476,-1.4803,-1.4843,-1.4909,-1.491,-1.4942,-1.4962,-1.4991,-1.5028,-1.4989,-1.499,-1.4994,-1.509,-1.5089,-1.5096,-1.5035,-1.5036,-1.5037,-1.5086,0,-1.447,-1.4553,-1.4581,-1.465,-1.4694,-1.4713,-1.4754,-1.4794,-1.4821,-1.4861,-1.4891,-1.4937,-1.4936,-1.4955,-1.4984,-1.5017,-1.5048,-1.5014,-1.5072,-1.5074,-1.5059,-1.5105,-1.5104,-1.5148,-1.5093,-1.5094,-1.5095,0,-1.4534,-1.4578,-1.4651,-1.4704,-1.4723,-1.4759,-1.481,-1.4848,-1.4894,-1.4912,-1.4947,-1.4965,-1.5014,-1.5002,-1.507,-1.5046,-1.5072,-1.5091,-1.5094,-1.51,-1.5086,-1.5113,-1.5163,-1.517,-1.5106,-1.5105,-1.5104,0,-1.455,-1.4627,-1.4681,-1.4704,-1.4768,-1.4792,-1.482,-1.4864,-1.4894,-1.4939,-1.4958,-1.5008,-1.5035,-1.5072,-1.5103,-1.5091,-1.5168,-1.5159,-1.5184,-1.5183,-1.52,-1.5198,-1.5254,-1.5216,-1.5215,-1.5215,-1.5215,0,-1.4597,-1.4641,-1.4689,-1.4722,-1.4772,-1.4804,-1.4852,-1.4881,-1.492,-1.4959,-1.4979,-1.5016,-1.5054,-1.5095,-1.5119,-1.5171,-1.5183,-1.5199,-1.5205,-1.5197,-1.5195,-1.5215,-1.5212,-1.5217,-1.5217,-1.5216,-1.5216,0,-1.4623,-1.4657,-1.4717,-1.4772,-1.4786,-1.4821,-1.4868,-1.49,-1.4928,-1.4977,-1.499,-1.5034,-1.5083,-1.5117,-1.518,-1.5197,-1.5254,-1.5259,-1.5238,-1.5241,-1.5264,-1.5262,-1.5335,-1.5346,-1.53,-1.53,-1.53,0,-1.4651,-1.4686,-1.4744,-1.4771,-1.4799,-1.4843,-1.4873,-1.4905,-1.4936,-1.4991,-1.5017,-1.5068,-1.511,-1.5188,-1.5226,-1.5274,-1.5281,-1.5303,-1.5289,-1.528,-1.5282,-1.5279,-1.5283,-1.5306,-1.5306,-1.5306,-1.5306,0,-1.4698,-1.4713,-1.4756,-1.4805,-1.4841,-1.4881,-1.4921,-1.4943,-1.4982,-1.5016,-1.5066,-1.5099,-1.5164,-1.5214,-1.5266,-1.5294,-1.5307,-1.5311,-1.5319,-1.5312,-1.5298,-1.5306,-1.5244,-1.5309,-1.5309,-1.5309,-1.5308,-1.5308,-1.4726,-1.4757,-1.4803,-1.485,-1.4884,-1.4921,-1.4955,-1.4986,-1.5029,-1.5084,-1.51,-1.5153,-1.5198,-1.5269,-1.5298,-1.534,-1.5338,-1.535,-1.5353,-1.5356,-1.5356,-1.5291,-1.5349,-1.5349,-1.5349,-1.5349,-1.5349,0,-1.4773,-1.4803,-1.4847,-1.4902,-1.4939,-1.4948,-1.4993,-1.5024,-1.507,-1.511,-1.5151,-1.5209,-1.5258,-1.5299,-1.5349,-1.5375,-1.5382,-1.5387,-1.5385,-1.5392,-1.5354,-1.5342,-1.538,-1.538,-1.538,-1.538,-1.538,-1.538,-1.4802,-1.4856,-1.4876,-1.4946,-1.4976,-1.5028,-1.5053,-1.5087,-1.512,-1.5183,-1.5224,-1.525,-1.5291,-1.5344,-1.5389,-1.54,-1.5417,-1.5421,-1.5433,-1.5398,-1.5394,-1.5391,-1.5379,-1.5425,-1.5425,-1.5467,-1.5467,-1.5468]}]]